Weather History for Arlington, WA

Change the Weather History Date:

Friday, February 8, 2013

  Actual Average Record
Temperature  
Mean Temperature 33 °F -  
Max Temperature 42 °F 62 °F 62 °F (1977)
Min Temperature 24 °F 31 °F 14 °F (2014)
Degree Days  
Heating Degree Days 32    
Moisture  
Dew Point 31 °F    
Average Humidity 89    
Maximum Humidity 100    
Minimum Humidity 74    
Precipitation  
Precipitation 0.00 in - - ()
Sea Level Pressure  
Sea Level Pressure 30.29 in    
Wind  
Wind Speed 0 mph (NW)    
Max Wind Speed 5 mph    
Max Gust Speed -    
Visibility 7 miles    
Events      
Averages and records for this station are not official NWS values.
T = Trace of Precipitation, MM = Missing Value Source: NWS Daily Summary

Daily Weather History Graph

Daily Weather History Graph

Search for Another Location

Airport:

Trip Planner

Search our weather history database for the weather conditions in past years. The results will help you decide how hot, cold, wet, or windy it might be!

Date:

Astronomy

Feb. 08, 2013 Rise Set
Actual Time 7:26 AM PST 5:20 PM PST
Civil Twilight 6:53 AM PST 5:52 PM PST
Nautical Twilight 6:16 AM PST 6:29 PM PST
Astronomical Twilight 5:40 AM PST 7:05 PM PST
Moon 6:02 AM PST (2/8) 3:57 PM PST (2/8)
Length of Visible Light 10h 59m
Length of Day
9h 54m
Waning Crescent, 3% of the Moon is Illuminated
Feb 8
Waning Crescent
Feb 9
New
Feb 17
First Quarter
Feb 25
Full
Mar 4
Last Quarter

Hourly Weather History & Observations

Time (PST) Temp. Windchill Dew Point Humidity Pressure Visibility Wind Dir Wind Speed Gust Speed Precip Events Conditions
12:15 AM 26.6 °F - 24.8 °F 93% 30.22 in 1.0 mi Calm Calm - N/A   Clear
12:35 AM 28.4 °F - 28.4 °F 100% 30.22 in 1.0 mi North - - N/A   Clear
12:55 AM 28.4 °F - 28.4 °F 100% 30.22 in 0.5 mi Calm Calm - N/A   Mostly Cloudy
1:35 AM 28.4 °F - 24.8 °F 86% 30.23 in 0.5 mi Calm Calm - N/A   Overcast
1:55 AM 28.4 °F - 26.6 °F 93% 30.23 in 0.5 mi Calm Calm - N/A   Overcast
2:15 AM 26.6 °F - 26.6 °F 100% 30.24 in 0.2 mi Calm Calm - N/A   Overcast
2:35 AM 26.6 °F - 24.8 °F 93% 30.24 in 0.2 mi Calm Calm - N/A   Overcast
2:55 AM 26.6 °F - 24.8 °F 93% 30.24 in 0.8 mi Calm Calm - N/A   Overcast
3:15 AM 26.6 °F - 24.8 °F 93% 30.24 in 1.0 mi Calm Calm - N/A   Overcast
3:35 AM 26.6 °F - 24.8 °F 93% 30.25 in 0.2 mi Calm Calm - N/A   Overcast
3:55 AM 24.8 °F - 17.6 °F 74% 30.25 in 0.2 mi Calm Calm - N/A   Overcast
4:15 AM 24.8 °F - 23.0 °F 93% 30.26 in 0.5 mi Calm Calm - N/A   Overcast
4:35 AM 26.6 °F - 24.8 °F 93% 30.27 in 0.2 mi Calm Calm - N/A   Overcast
4:55 AM 26.6 °F - 24.8 °F 93% 30.27 in 0.2 mi Calm Calm - N/A   Overcast
5:15 AM 26.6 °F - 24.8 °F 93% 30.27 in 0.2 mi Calm Calm - N/A   Overcast
5:35 AM 26.6 °F - 24.8 °F 93% 30.27 in 0.2 mi Calm Calm - N/A   Overcast
5:55 AM 28.4 °F - 26.6 °F 93% 30.27 in 0.5 mi Calm Calm - N/A   Overcast
6:15 AM 28.4 °F - 26.6 °F 93% 30.27 in 0.2 mi Calm Calm - N/A   Overcast
6:35 AM 26.6 °F - 26.6 °F 100% 30.28 in 0.2 mi Calm Calm - N/A   Overcast
6:55 AM 28.4 °F - 24.8 °F 86% 30.28 in 0.2 mi Calm Calm - N/A   Overcast
7:15 AM 28.4 °F - 26.6 °F 93% 30.30 in 0.2 mi Calm Calm - N/A   Overcast
7:35 AM 28.4 °F - 26.6 °F 93% 30.30 in 0.2 mi Calm Calm - N/A   Overcast
7:55 AM 28.4 °F - 28.4 °F 100% 30.30 in 8.0 mi Calm Calm - N/A   Overcast
8:15 AM 30.2 °F - 28.4 °F 93% 30.31 in 10.0 mi Calm Calm - N/A   Overcast
8:35 AM 30.2 °F - 28.4 °F 93% 30.31 in 10.0 mi Calm Calm - N/A   Overcast
8:55 AM 30.2 °F - 28.4 °F 93% 30.31 in 10.0 mi Calm Calm - N/A   Overcast
9:15 AM 30.2 °F - 28.4 °F 93% 30.31 in 10.0 mi Calm Calm - N/A   Overcast
9:35 AM 30.2 °F - 28.4 °F 93% 30.32 in 10.0 mi Calm Calm - N/A   Overcast
9:55 AM 32.0 °F - 30.2 °F 93% 30.32 in 10.0 mi Calm Calm - N/A   Overcast
10:15 AM 33.8 °F - 30.2 °F 87% 30.32 in 10.0 mi Calm Calm - N/A   Overcast
10:35 AM 33.8 °F - 32.0 °F 93% 30.33 in 10.0 mi Calm Calm - N/A   Overcast
10:55 AM 33.8 °F - 32.0 °F 93% 30.33 in 10.0 mi Calm Calm - N/A   Overcast
11:15 AM 35.6 °F - 33.8 °F 93% 30.33 in 10.0 mi Calm Calm - N/A   Overcast
11:35 AM 37.4 °F - 33.8 °F 87% 30.32 in 10.0 mi Calm Calm - N/A   Overcast
11:55 AM 37.4 °F - 33.8 °F 87% 30.32 in 10.0 mi Calm Calm - N/A   Overcast
12:15 PM 39.2 °F - 35.6 °F 87% 30.31 in 10.0 mi Calm Calm - N/A   Overcast
12:35 PM 39.2 °F - 33.8 °F 81% 30.30 in 10.0 mi Calm Calm - N/A   Overcast
12:55 PM 39.2 °F - 35.6 °F 87% 30.30 in 10.0 mi Calm Calm - N/A   Overcast
1:15 PM 39.2 °F - 33.8 °F 81% 30.30 in 10.0 mi Calm Calm - N/A   Overcast
1:35 PM 41.0 °F - 33.8 °F 76% 30.30 in 10.0 mi Calm Calm - N/A   Overcast
1:55 PM 42.8 °F - 35.6 °F 76% 30.30 in 10.0 mi Calm Calm - N/A   Overcast
2:15 PM 42.8 °F - 35.6 °F 76% 30.30 in 10.0 mi Calm Calm - N/A   Overcast
2:35 PM 42.8 °F - 35.6 °F 76% 30.30 in 10.0 mi Calm Calm - N/A   Overcast
2:55 PM 42.8 °F - 35.6 °F 76% 30.30 in 10.0 mi Calm Calm - N/A   Overcast
3:35 PM 42.8 °F - 35.6 °F 76% 30.30 in 10.0 mi Calm Calm - N/A   Overcast
3:55 PM 42.8 °F 40.1 °F 35.6 °F 76% 30.30 in 10.0 mi NW 4.6 mph - N/A   Overcast
4:15 PM 42.8 °F 40.1 °F 35.6 °F 76% 30.30 in 10.0 mi NW 4.6 mph - N/A   Overcast
4:35 PM 41.0 °F - 35.6 °F 81% 30.30 in 10.0 mi Calm Calm - N/A   Overcast
4:55 PM 41.0 °F - 35.6 °F 81% 30.30 in 10.0 mi Calm Calm - N/A   Overcast
5:15 PM 41.0 °F - 35.6 °F 81% 30.29 in 10.0 mi Calm Calm - N/A   Overcast
5:35 PM 41.0 °F - 35.6 °F 81% 30.29 in 10.0 mi Calm Calm - N/A   Overcast
5:55 PM 39.2 °F - 35.6 °F 87% 30.30 in 10.0 mi Calm Calm - N/A   Overcast
6:15 PM 41.0 °F - 33.8 °F 76% 30.30 in 10.0 mi Calm Calm - N/A   Overcast
6:35 PM 39.2 °F - 35.6 °F 87% 30.30 in 10.0 mi Calm Calm - N/A   Overcast
6:55 PM 39.2 °F - 35.6 °F 87% 30.29 in 10.0 mi Calm Calm - N/A   Overcast
7:15 PM 39.2 °F - 35.6 °F 87% 30.30 in 10.0 mi Calm Calm - N/A   Overcast
7:35 PM 39.2 °F - 35.6 °F 87% 30.30 in 10.0 mi Calm Calm - N/A   Overcast
7:55 PM 39.2 °F - 35.6 °F 87% 30.30 in 10.0 mi Calm Calm - N/A   Overcast
8:15 PM 39.2 °F - 35.6 °F 87% 30.30 in 10.0 mi Calm Calm - N/A   Overcast
8:35 PM 37.4 °F - 35.6 °F 93% 30.30 in 10.0 mi Calm Calm - N/A   Overcast
8:55 PM 37.4 °F - 35.6 °F 93% 30.30 in 10.0 mi Calm Calm - N/A   Overcast
9:15 PM 37.4 °F - 33.8 °F 87% 30.30 in 10.0 mi Calm Calm - N/A   Overcast
9:35 PM 37.4 °F - 33.8 °F 87% 30.30 in 10.0 mi Calm Calm - N/A   Overcast
9:55 PM 37.4 °F - 35.6 °F 93% 30.30 in 10.0 mi Calm Calm - N/A   Overcast
10:15 PM 37.4 °F - 35.6 °F 93% 30.30 in 10.0 mi Calm Calm - N/A   Overcast
10:35 PM 37.4 °F - 35.6 °F 93% 30.30 in 10.0 mi Calm Calm - N/A   Overcast
10:55 PM 37.4 °F - 35.6 °F 93% 30.30 in 10.0 mi Calm Calm - N/A   Overcast
11:15 PM 37.4 °F - 35.6 °F 93% 30.29 in 10.0 mi Calm Calm - N/A   Overcast
11:35 PM 37.4 °F - 33.8 °F 87% 30.30 in 10.0 mi Calm Calm - N/A   Overcast
11:55 PM 37.4 °F - 35.6 °F 93% 30.30 in 10.0 mi Calm Calm - N/A   Overcast